Location: Newark
(25.1987°N, 100.3705°W)
Time: 01:21:10
(UTC+00:00)

ISS - Visible Passes

Search period start: 07 April 2020 00:00
Search period end: 17 April 2020 00:00
Orbit: 418 x 423 km, 51.6° (Epoch: 07 April)

Date Brightness Start Highest point End Pass type
(mag) Time Alt. Az. Time Alt. Az. Time Alt. Az.
07 Apr -2.5 02:07:21 10° NNW 02:10:13 25° NE 02:10:26 25° NE visible
08 Apr -1.6 01:20:59 10° N 01:22:56 14° NE 01:24:53 10° ENE visible
08 Apr -1.5 02:56:46 10° WNW 02:58:40 25° W 02:58:40 25° W visible
09 Apr -3.6 02:09:21 10° NW 02:12:41 70° SW 02:13:59 34° SSE visible
10 Apr -3.5 01:22:15 10° NNW 01:25:32 52° NE 01:28:48 10° SE visible
11 Apr -1.0 02:12:52 10° W 02:14:54 15° SW 02:16:56 10° SSW visible
12 Apr -1.9 01:24:50 10° WNW 01:27:49 30° SW 01:30:48 10° S visible
